Flag for Poland Weather past 2 weeks in Toruń, Poland

Now
40 °F

Overcast.


Feels Like: 36 °F
Forecast: 37 / 44 °F
Wind: 6 mph from South

Location: Torun

Current Time: Mar 31, 2015 at 12:08:34 PM

Latest Report: Mar 31, 2015 at 11:00 AM


Visibility: 17 mi

Pressure: 29.26 "Hg

Humidity: 72%

Dew point: 32 °F

Location of ToruńLocation

Historic Weather in Toruń — Graph

°F

Toruń temperature yesterday

Maximum temperature yesterday: 49 °F (at 2:00 PM)
Minimum temperature yesterday: 39 °F (at 6:00 PM)
Average temperature yesterday: 44 °F

Past Weeks' High & Low Weather Summary

 TemperatureHumidityPressure
High61 °F (Mar 25, 2:00 PM)100% (Mar 28, 3:00 AM)30.71 "Hg (Mar 28, 3:00 AM)
Low21 °F (Mar 20, 6:00 AM)21% (Mar 18, 3:00 PM)29.00 "Hg (Mar 30, 6:00 AM)
Average42 °F66%30.03 "Hg
* Reported Mar 16 9:00 AM — Mar 31 10:00 AM, Toruń, Weather by CustomWeather, © 2015

Note: Actual official high and low records may vary slightly from our data, if they occured in-between our weather recording intervals... More about our weather records

Advertising

Toruń weather history for previous 24 hours

 ConditionsComfort  
Time TempWeatherWind HumidityBarometerVisibility
10:00 AM
Tue, Mar 31
38 °FOvercast.5 mph77%29.32 "Hg12 mi
9:00 AM38 °FOvercast.5 mph76%29.38 "Hg14 mi
8:00 AM38 °FOvercast.5 mph74%29.41 "Hg13 mi
7:00 AM38 °FOvercast.3 mph74%29.47 "Hg16 mi
6:00 AM38 °FOvercast.5 mph79%29.47 "Hg16 mi
4:00 AM39 °FOvercast.3 mph81%29.50 "Hg22 mi
3:00 AM40 °FOvercast.5 mph82%29.50 "Hg28 mi
2:00 AM40 °FOvercast.5 mph83%29.50 "Hg28 mi
1:00 AM40 °FOvercast.3 mph87%29.47 "Hg28 mi
12:00 AM40 °FOvercast.3 mph88%29.44 "Hg31 mi
11:00 PM
Mon, Mar 30
40 °FPassing clouds.3 mph90%29.41 "Hg31 mi
10:00 PM40 °FPassing clouds.3 mph90%29.38 "Hg31 mi
9:00 PM40 °FOvercast.3 mph89%29.38 "Hg22 mi
8:00 PM40 °FPassing clouds.3 mph84%29.32 "Hg31 mi
7:00 PM41 °FPartly sunny.3 mph85%29.29 "Hg31 mi
6:00 PM39 °FSprinkles. Overcast.6 mph83%29.26 "Hg2 mi
5:00 PM41 °FOvercast.2 mph88%29.23 "Hg15 mi
4:00 PM46 °FOvercast.5 mph72%29.18 "Hg19 mi
3:00 PM46 °FSprinkles. Overcast.6 mph66%29.18 "Hg25 mi
2:00 PM49 °FPartly sunny.6 mph53%29.15 "Hg28 mi
1:00 PM47 °FPartly sunny.7 mph58%29.12 "Hg31 mi
12:00 PM46 °FOvercast.6 mph65%29.12 "Hg31 mi
Weather by CustomWeather, © 2015

See weather overviewHow to use our weather pages